Regional Weather Roundup
Issued by NWS

Home | Current Version | Previous Version | Text Only | Print | Product List | Glossary Off
Versions: 1 2 3 4 5 6 7 8 9 10 11 12 13 14 15 16 17 18 19 20 21 22 23 24 25 26 27 28 29 30 31 32 33 34 35 36 37 38 39 40 41 42 43 44 45 46 47 48 49 50

000
ASUS43 KDMX 120708
RWRIA

WEATHER ROUNDUP FOR IOWA
NATIONAL WEATHER SERVICE DES MOINES IA
100 AM CST FRI FEB 12 2016

NOTE: "FAIR" INDICATES FEW OR NO CLOUDS BELOW 12,000 FEET WITH NO
SIGNIFICANT WEATHER AND/OR OBSTRUCTIONS TO VISIBILITY.

* - THESE STATIONS ARE NOT NWS STATIONS...THUS NOT UNDER NWS
QUALITY CONTROL.  THEY ALSO DO NOT REPORT WEATHER SUCH
AS PRECIPITATION OR FOG.

IAZ001>003-012>014-020>022-031>034-043>046-120800-
   NORTHWEST IOWA

CITY           SKY/WX    TMP DP  RH WIND       PRES   REMARKS
CARROLL *      CLOUDY    16  14  93 NW5       30.22S WCI   9
CHEROKEE *     CLOUDY    10   9  92 CALM      30.24F
DENISON *      CLOUDY    18  16  93 CALM      30.21S
LE MARS *      PTCLDY    12  12 100 CALM      30.27S
ORANGE CITY *  CLEAR     10  10 100 NW5       30.23F WCI   2
SHELDON *      CLOUDY    10   9  92 W5        30.22S WCI   2
SIOUX CITY     CLOUDY    19  15  84 N9        30.26S WCI   8
SPENCER        CLOUDY    11   7  84 NW5       30.22F WCI   3
STORM LAKE *   MOCLDY    12  12 100 W7        30.22S WCI   2
$$

IAZ055>058-069>071-079>083-090>094-120800-
   SOUTHWEST IOWA

CITY           SKY/WX    TMP DP  RH WIND       PRES   REMARKS
ATLANTIC *     CLOUDY    21  18  86 CALM      30.23R
AUDUBON *      PTCLDY    19  16  86 CALM      30.21S
CLARINDA *     CLOUDY    28  19  69 CALM      30.23F
COUNCIL BLFS * CLOUDY    23  21  93 N7        30.22S WCI  15
CRESTON *      CLOUDY    21  18  86 SE5       30.21S WCI  15
HARLAN  *      CLOUDY    21  18  86 CALM      30.26S
LAMONI         CLOUDY    21  17  84 SE3       30.20F
RED OAK *      CLOUDY    25  21  86 NE5       30.23S WCI  19
SHENANDOAH *   CLOUDY    30  21  69 E3        30.22F
$$

IAZ047>049-059>061-072>074-084-120800-
   CENTRAL IOWA

CITY           SKY/WX    TMP DP  RH WIND       PRES   REMARKS
AMES           CLOUDY    17  14  88 CALM      30.22F
ANKENY *       CLOUDY    18  18 100 CALM      30.23S
BOONE *        CLOUDY    16  14  93 W5        30.20S WCI   9
CHARITON *     CLOUDY    19  16  86 S5        30.21F WCI  13
DES MOINES     CLOUDY    19  15  84 S3        30.22F
GRINNELL*      CLOUDY    18  18 100 CALM      30.22S
KNOXVILLE *    CLOUDY    18  16  93 CALM      30.21F
MARSHALLTOWN   CLOUDY    17  13  84 CALM      30.21F
NEWTON *       CLOUDY    16  16 100 S3        30.21F
PELLA *        CLOUDY    18  16  93 CALM      30.24S
$$

IAZ004>006-015-016-023>025-035-036-120800-
   NORTH CENTRAL IOWA

CITY           SKY/WX    TMP DP  RH WIND       PRES   REMARKS
ALGONA *       CLOUDY    14  12  92 W13       30.21S WCI   0
CLARION *      CLOUDY    14  10  85 W7        30.22F WCI   4
ESTHERVILLE    CLOUDY     8   6  92 W14       30.21S WCI  -8
FORT DODGE *   CLOUDY    16  10  79 W3        30.24R
MASON CITY     CLOUDY    12   8  84 W9        30.22S WCI   0
FOREST CITY *  FLURRIES  14  10  85 W5        30.20F WCI   6
WEBSTER CITY * CLOUDY    16  14  93 NW6       30.21R WCI   7
IOWA FALLS *   CLOUDY    16  14  93 W6        30.21F WCI   7
$$

IAZ007>011-017>019-026>030-037>042-050>054-066-120800-
   NORTHEAST IOWA

CITY           SKY/WX    TMP DP  RH WIND       PRES   REMARKS
CEDAR RAPIDS   CLOUDY    17  14  88 SW5       30.21F WCI  10
CHARLES CITY * CLOUDY    12   5  73 W6        30.21S WCI   3
CLINTON *      CLEAR     15   6  67 CALM      30.23F
DECORAH *      CLOUDY    12   5  73 W3        30.18F
DUBUQUE        CLOUDY    11   7  84 CALM      30.19F
MONTICELLO *   CLOUDY    14   9  79 CALM      30.21F
OELWEIN *      CLOUDY    12   5  73 SW5       30.20F WCI   4
WATERLOO       CLOUDY    12   6  77 CALM      30.21F
$$

IAZ064-065-067-068-078-120800-
   EAST CENTRAL IOWA

CITY           SKY/WX    TMP DP  RH WIND       PRES   REMARKS
DAVENPORT      CLEAR     17  11  77 CALM      30.23F
IOWA CITY      CLEAR     17  14  88 CALM      30.25F
MT. PLEASANT * CLOUDY    23  19  86 CALM      30.24F
MUSCATINE *    MOCLDY    21  18  86 W5        30.26F WCI  15
QUAD CITIES    CLOUDY    22  12  65 W7        30.23F WCI  13
$$

IAZ062-063-075>077-085>089-095>099-120800-
   SOUTHEAST IOWA

CITY           SKY/WX    TMP DP  RH WIND       PRES   REMARKS
BURLINGTON     FLURRIES  21  18  88 W3        30.23F
FAIRFIELD *    CLOUDY    21  16  79 SW3       30.23F
FORT MADISON * LGT SNOW  19  18  93 CALM      30.24F
KEOKUK *       LGT SNOW  21  19  93 CALM      30.24S
OSKALOOSA *    CLOUDY    19  18  93 CALM      30.23F
CENTERVILLE *  CLOUDY    19  18  93 CALM      30.22F
OTTUMWA        CLOUDY    19  17  92 CALM      30.22F
WASHINGTON *   CLOUDY    19  18  93 CALM      30.25F
$$

ABBREVIATIONS USED IN REMARKS
   TC - TEMPERATURES IN CELSIUS
  WCI - WIND CHILL INDEX
   HX - HEAT INDEX
  VSB - VISIBILITY
$$




USA.gov is the U.S. government's official web portal to all federal, state and local government web resources and services.